Regional Weather Roundup
Issued by NWS

Home | Current Version | Previous Version | Text Only | Print | Product List | Glossary On
Versions: 1 2 3 4 5 6 7 8 9 10 11 12 13 14 15 16 17 18 19 20 21 22 23 24 25 26 27 28 29 30 31 32 33 34 35 36 37 38 39 40 41 42 43 44 45 46 47 48 49 50
809
ASUS43 KDTX 102201
RWRMI
MICHIGAN HOURLY REGIONAL WEATHER ROUNDUP
NATIONAL WEATHER SERVICE DETROIT/PONTIAC MI
500 PM EST WED FEB 10 2016

NOTE: "FAIR" INDICATES FEW OR NO CLOUDS BELOW 12,000 FEET WITH NO
SIGNIFICANT WEATHER AND/OR OBSTRUCTION TO VISIBILITY.

MIZ047>049-052>055-059>063-066>070-074>076-081>083-102300-
SOUTHEAST LOWER MICHIGAN

CITY           SKY/WX    TMP DP  RH WIND       PRES   REMARKS
ADRIAN         CLOUDY    20  10  65 NW15      29.89R WCI   6
ALMA           LGT SNOW  17  10  75 NW12G18   29.90R WCI   4
ANN ARBOR      CLOUDY    19   4  51 W13       29.87R WCI   6
BAD AXE        CLOUDY    15   5  64 NW15      29.84R WCI   0
CARO           CLOUDY    16   1  53 NW10G17   29.85R WCI   3
DETROIT CITY   FLURRIES  19   9  65 W9        29.87R WCI   8
DETROIT        CLOUDY    20   6  55 NW16      29.88R WCI   6
FLINT          CLOUDY    20   7  57 NW12      29.86R WCI   8
GROSSE ILE     CLOUDY    21   5  49 W14       29.87R WCI   8
HILLSDALE      CLOUDY    18   7  61 W14       29.87R WCI   5
HOWELL         CLOUDY    19   6  57 NW14G21   29.86R WCI   5

CITY           SKY/WX    TMP DP  RH WIND       PRES   REMARKS
JACKSON        CLOUDY    19   2  47 NW16G24   29.88R WCI   4
LAMBERTVILLE   CLOUDY    21  12  66 W10       29.90R WCI  10
LANSING        CLOUDY    18   4  54 NW21      29.89R WCI   1
LAPEER         CLOUDY    16   7  66 NW12G18   29.85R WCI   3
MASON          CLOUDY    18   7  62 NW10G16   29.88R WCI   6
MONROE         CLOUDY    22   7  52 W16G22    29.88R WCI   9
MT. CLEMENS    FLURRIES  19   9  64 W9        29.84R WCI   8
PONTIAC        SNOW      16  10  77 NW16      29.84R VSB 1/2 WCI   1
PORT HOPE        N/A     16   7  67 NW16G25   29.82R WCI   1
PORT HURON     CLOUDY    18   7  62 NW10      29.86R WCI   6
TRI CITIES     CLOUDY    17   3  54 NW16G26   29.89R WCI   2
MIDLAND        CLOUDY    17   2  52 NW13      29.89R WCI   3
TROY           LGT SNOW  19  14  79 NW7G18    29.88R WCI  10
SAGINAW HB     CLOUDY    18   9  68 NW20G26   29.88R WCI   1
$$
MIZ043>046-050>051-056>058-064>065-071>073-077>080-102300-
SOUTHWEST LOWER MICHIGAN

CITY           SKY/WX    TMP DP  RH WIND       PRES   REMARKS
BATTLE CREEK   CLOUDY    18   7  62 NW14      29.91R WCI   4
BENTON HARBOR  LGT SNOW  18  10  71 NW9G20    30.00R WCI   7
BIG RAPIDS     MOCLDY    16   2  54 NW12G17   29.89R WCI   3
COLDWATER      FLURRIES  19  11  73 NW12G18   29.91R WCI   6
FREMONT        CLOUDY    16   2  55 NW13G22   29.95R WCI   2
HOLLAND        LGT SNOW  17  11  77 N8        29.97R WCI   7
GRAND RAPIDS   PTSUNNY   19   4  51 NW14G21   29.93R WCI   6
IONIA          CLOUDY    18   3  52 NW14G23   29.90R WCI   4
KALAMAZOO      LGT SNOW  17  11  77 NW17      29.94R VSB 1   WCI   1
LUDINGTON      LGT SNOW  16   8  71 NW12G22   29.97R WCI   3
MARSHALL       CLOUDY    19   6  58 NW8G16    29.89R WCI   9
MOUNT PLEASANT CLOUDY    19   2  49 NW9       29.89R WCI   7
MUSKEGON       LGT SNOW  17   6  62 NW13      29.98R WCI   4
SOUTH HAVEN    CLOUDY    19   9  66 NW12G21   29.98R WCI   6
$$
MIZ016>042-102300-
NORTHERN LOWER MICHIGAN

CITY           SKY/WX    TMP DP  RH WIND       PRES   REMARKS
ALPENA         LGT SNOW  11   2  67 NW13G29   29.86R WCI  -4
BEAVER ISLAND  MOCLDY    12  -1  57 N16G24    29.94R WCI  -5
BELLAIRE       CLOUDY    14   2  58 N7        29.93R WCI   4
CADILLAC       PTCLDY    12   4  71 NW9       29.86R WCI  -1
CHARLEVOIX     LGT SNOW  14   7  73 N15G26    29.94R VSB 3/4 WCI  -1
FRANKFORT      LGT SNOW  16   9  74 N9G21     29.95R VSB 1   WCI   4
GAYLORD        CLOUDY    10  -2  58 NW7       29.83R WCI  -1
GRAYLING       LGT SNOW  11   4  72 NW12G17   29.86R WCI  -3
HARBOR SPRINGS CLOUDY    11   1  64 NW10      29.91R WCI  -2
HOUGHTON LAKE  CLOUDY    12   1  61 N12       29.85R WCI  -2
MANISTEE       CLOUDY    18   3  53 N14G22    29.95R WCI   4
OSCODA         CLOUDY    13   1  59 NW13      29.85R WCI  -2
PELLSTON       CLOUDY    10   0  63 N15G24    29.92R WCI  -7
ROGERS CITY    CLOUDY    11   1  65 NW15G24   29.87R HAZE    WCI  -5
TRAVERSE CITY  LGT SNOW  16   5  62 N16G22    29.92R WCI   1
$$
MIZ007>008-015-102300-
EASTERN UPPER MICHIGAN

CITY           SKY/WX    TMP DP  RH WIND       PRES   REMARKS
KINROSS        CLOUDY     9   3  78 NW16G24   29.87R WCI  -9
MACKINAC ISLAN CLOUDY    10   0  64 N17G26    29.89R WCI  -8
NEWBERRY       CLOUDY     9   3  77 N12G17    29.91S HAZE    WCI  -6
S. S. MARIE    CLEAR      9  -6  50 NW9G21    29.89R WCI  -4
$$
MIZ004>006-011>014-085-102300-
CENTRAL UPPER MICHIGAN

CITY           SKY/WX    TMP DP  RH WIND       PRES   REMARKS
MANISTIQUE     CLOUDY    12   4  70 N13G18    29.95R HAZE    WCI  -3
ESCANABA       MOCLDY    12  -2  52 NW14G21   30.00R WCI  -3
MENOMINEE      SUNNY     12  -6  44 N13G21    30.03R WCI  -3
SAWYER-GWINN   LGT SNOW   9   1  72 NW16G25   29.96R WCI  -9
$$
MIZ001>003-009>011-084-102300-
WESTERN UPPER MICHIGAN

CITY           SKY/WX    TMP DP  RH WIND       PRES   REMARKS
IRON MOUNTAIN  PTSUNNY    9  -5  53 N15       30.00R WCI  -8
HOUGHTON       FLURRIES   7  -1  70 NW10      30.03R WCI  -8
COPPER HARBOR    N/A     11   6  81 N24G30    30.05R WCI  -9
IRONWOOD       CLOUDY     9   5  85 NW9       30.04R WCI  -5
$$

ABBREVIATIONS USED IN REMARKS
   TC - TEMPERATURE IN CELSIUS
  WCI - WIND CHILL INDEX
   HX - HEAT INDEX
  VSB - VISIBILITY





USA.gov is the U.S. government's official web portal to all federal, state and local government web resources and services.